Location: La Pernelle
(49.6188°N, 1.2999°W)
Time: 04:38:00
(UTC+00:00)

Cosmos 1626 - Visible Passes

Search period start: 26 October 2021 00:00
Search period end: 05 November 2021 00:00
Orbit: 489 x 491 km, 82.5° (Epoch: 25 October)

Date Brightness Start Highest point End Pass type
(mag) Time Alt. Az. Time Alt. Az. Time Alt. Az.
26 Oct 2.0 04:33:47 73° S 04:34:07 86° E 04:37:51 10° N visible
27 Oct 3.2 04:12:09 40° NE 04:12:09 40° NE 04:14:48 10° NNE visible
27 Oct 3.9 05:46:42 14° WNW 05:46:44 14° WNW 05:48:41 10° NNW visible
28 Oct 4.5 03:50:16 20° NE 03:50:16 20° NE 03:51:40 10° NNE visible
28 Oct 3.9 05:24:48 16° NW 05:24:48 16° NW 05:26:16 10° NNW visible
29 Oct 5.3 03:28:13 11° NE 03:28:13 11° NE 03:28:25 10° NNE visible
29 Oct 4.2 05:02:44 15° NNW 05:02:44 15° NNW 05:03:37 10° NNW visible
30 Oct 4.6 04:40:33 12° N 04:40:33 12° N 04:40:50 10° N visible
